Location: *
(33.8649°S, 62.1526°E)
Time: 11:41:38
(UTC+00:00)

Cosmos 1184 Rocket - Pass Details

Date: 17 January 2021
Orbit: 404 x 416 km, 81.2° (Epoch: 02 March)

Event Time Altitude Azimuth Distance (km) Brightness Sun altitude
Rises 16:27:08 0° 190° (S) 2,381 7.4 -15.4°
Reaches altitude 10° 16:29:12 10° 191° (S) 1,506 6.3 -15.7°
Maximum altitude 16:32:28 77° 277° (W) 430 2.8 -16.2°
Enters shadow 16:33:57 29° 359° (N) 780 3.7 -16.5°
